sat.trackr.live / text

‹ back to catalog

STARLINK-31310

NORAD 59092 · 2024-041U

PAYLOAD ACTIVE UNKNOWN

§ Identity

Operator
Country
US
Launch date
2024-02-29
Launch site
AFETR
Launch vehicle
Mass (kg)
RCS (m²)

Purposes: comms

External: N2YO · Heavens-Above · Gunter

§ Orbital elements

Epoch: 2026-05-24T15:35:58.509600Z

Period
94.27 min
Inclination
43.0024°
Eccentricity
0.0000838
Mean motion
15.27572311 rev/d
Perigee alt
482.5 km
Apogee alt
483.6 km
Semi-major
6,861.2 km
B*
-6.7964e-8
RAAN
242.1490°
Arg perigee
288.7217°
Mean anomaly
71.3544°
Rev number
12,588

§ Raw data

STARLINK-313101 59092U 24041U   26144.64998275 -.00000264  00000+0 -67964-7 0  99952 59092  43.0024 242.1490 0000838 288.7217  71.3544 15.27572311125888

JSON: /api/v1/satellites/59092 · /tle

For live sub-satellite position, see the globe view (requires WebGL).

§ Visibility from observer

Set your observer location to see the next 7 days of passes ≥ 10°. The values pass through the URL so the page stays shareable.

No JS? Fill the form by hand. The geolocation button needs JavaScript.